TimeCST,TemperatureF,Dew PointF,Humidity,Sea Level PressureIn,VisibilityMPH,Wind Direction,Wind SpeedMPH,Gust SpeedMPH,PrecipitationIn,Events,Conditions,WindDirDegrees,DateUTC
12:53 AM,54.0,42.1,64,30.11,10.0,North,5.8,-,N/A,,Clear,350,2013-11-03 05:53:00
1:53 AM,52.0,42.1,69,30.13,10.0,NNW,6.9,-,N/A,,Clear,340,2013-11-03 06:53:00
1:53 AM,51.1,42.1,71,30.14,10.0,NNW,5.8,-,N/A,,Clear,340,2013-11-03 07:53:00
2:53 AM,48.9,42.1,77,30.14,10.0,NNW,5.8,-,N/A,,Clear,340,2013-11-03 08:53:00
3:53 AM,48.0,42.1,80,30.15,10.0,NNW,5.8,-,N/A,,Clear,340,2013-11-03 09:53:00
4:53 AM,48.0,41.0,77,30.16,10.0,NNW,5.8,-,N/A,,Clear,340,2013-11-03 10:53:00
5:53 AM,46.0,41.0,83,30.17,10.0,Calm,Calm,-,N/A,,Clear,0,2013-11-03 11:53:00
6:53 AM,48.0,42.1,80,30.19,10.0,NNE,4.6,-,N/A,,Clear,20,2013-11-03 12:53:00
7:53 AM,54.0,43.0,66,30.21,10.0,NE,6.9,-,N/A,,Clear,50,2013-11-03 13:53:00
8:53 AM,60.1,43.0,53,30.22,10.0,NNE,8.1,-,N/A,,Clear,30,2013-11-03 14:53:00
9:53 AM,64.0,42.1,45,30.23,10.0,NNE,10.4,16.1,N/A,,Clear,20,2013-11-03 15:53:00
10:53 AM,66.9,37.9,34,30.22,10.0,NE,9.2,20.7,N/A,,Clear,40,2013-11-03 16:53:00
11:53 AM,69.1,37.9,32,30.19,10.0,North,10.4,16.1,N/A,,Clear,10,2013-11-03 17:53:00
12:53 PM,70.0,37.9,31,30.17,10.0,ENE,4.6,-,N/A,,Clear,60,2013-11-03 18:53:00
1:53 PM,70.0,37.9,31,30.16,10.0,NNE,8.1,-,N/A,,Clear,30,2013-11-03 19:53:00
2:53 PM,70.0,37.0,30,30.15,10.0,North,6.9,-,N/A,,Clear,10,2013-11-03 20:53:00
3:53 PM,68.0,39.0,35,30.16,10.0,Variable,4.6,-,N/A,,Clear,0,2013-11-03 21:53:00
4:53 PM,59.0,46.9,64,30.17,10.0,Calm,Calm,-,N/A,,Clear,0,2013-11-03 22:53:00
5:53 PM,51.1,46.9,86,30.19,10.0,Calm,Calm,-,N/A,,Clear,0,2013-11-03 23:53:00
6:53 PM,48.9,46.0,90,30.20,10.0,Calm,Calm,-,N/A,,Clear,0,2013-11-04 00:53:00
7:53 PM,46.9,44.1,90,30.21,10.0,Calm,Calm,-,N/A,,Clear,0,2013-11-04 01:53:00
8:53 PM,45.0,43.0,93,30.22,8.0,Calm,Calm,-,N/A,,Clear,0,2013-11-04 02:53:00
9:53 PM,44.1,42.1,93,30.25,8.0,Calm,Calm,-,N/A,,Clear,0,2013-11-04 03:53:00
10:53 PM,42.1,39.9,92,30.25,7.0,Calm,Calm,-,N/A,,Clear,0,2013-11-04 04:53:00